Location: Libas
(9.8833°N, 125.9833°E)
Time: 22:01:47
(UTC+00:00)

Cosmos 1484 Rocket - Pass Details

Date: 27 October 2020
Orbit: 504 x 560 km, 97.4° (Epoch: 25 November)

Event Time Altitude Azimuth Distance (km) Brightness Sun altitude
Rises 20:04:20 0° 5° (N) 2,631 6.2 -20.5°
Reaches altitude 10° 20:06:28 10° 1° (N) 1,736 5.3 -19.9°
Maximum altitude 20:10:08 59° 282° (WNW) 593 2.6 -19.1°
Drops below altitude 10° 20:13:47 10° 202° (SSW) 1,717 5.2 -18.2°
Sets 20:15:52 0° 198° (SSW) 2,597 6.2 -17.7°
